TimeEDT,TemperatureF,Dew PointF,Humidity,Sea Level PressureIn,VisibilityMPH,Wind Direction,Wind SpeedMPH,Gust SpeedMPH,PrecipitationIn,Events,Conditions,WindDirDegrees,DateUTC
12:18 AM,3.0,-2.2,79,30.37,10.0,WNW,6.9,-,N/A,,Clear,290,2014-03-16 04:18:00
12:39 AM,2.3,-2.4,81,30.37,10.0,WNW,6.9,-,N/A,,Clear,300,2014-03-16 04:39:00
12:59 AM,2.5,-2.6,79,30.38,10.0,NW,6.9,-,N/A,,Clear,310,2014-03-16 04:59:00
1:18 AM,2.3,-2.6,80,30.39,10.0,NW,5.8,-,N/A,,Clear,320,2014-03-16 05:18:00
1:39 AM,2.3,-2.4,81,30.40,10.0,NW,6.9,-,N/A,,Clear,320,2014-03-16 05:39:00
1:59 AM,2.3,-2.6,80,30.40,10.0,NW,6.9,-,N/A,,Clear,310,2014-03-16 05:59:00
2:18 AM,1.4,-3.3,81,30.41,10.0,NNW,8.1,-,N/A,,Clear,330,2014-03-16 06:18:00
2:39 AM,1.2,-3.8,79,30.42,10.0,NNW,6.9,-,N/A,,Clear,330,2014-03-16 06:39:00
2:59 AM,1.0,-4.0,79,30.42,10.0,NNW,6.9,-,N/A,,Clear,330,2014-03-16 06:59:00
3:18 AM,0.1,-4.5,81,30.43,10.0,NNW,5.8,-,N/A,,Clear,330,2014-03-16 07:18:00
3:39 AM,0.9,-5.3,75,30.44,10.0,NNW,5.8,-,N/A,,Clear,340,2014-03-16 07:39:00
3:59 AM,0.5,-5.8,75,30.44,10.0,NNW,6.9,-,N/A,,Clear,340,2014-03-16 07:59:00
4:19 AM,-0.4,-6.3,76,30.45,10.0,NNW,6.9,-,N/A,,Clear,340,2014-03-16 08:19:00
4:39 AM,-0.9,-6.3,78,30.45,10.0,North,5.8,-,N/A,,Clear,360,2014-03-16 08:39:00
4:58 AM,-1.5,-6.7,78,30.45,10.0,North,8.1,-,N/A,,Clear,360,2014-03-16 08:58:00
5:19 AM,-1.5,-7.1,77,30.47,10.0,North,6.9,-,N/A,,Clear,360,2014-03-16 09:19:00
5:39 AM,-2.7,-7.6,80,30.47,10.0,North,5.8,-,N/A,,Clear,360,2014-03-16 09:39:00
5:58 AM,-3.3,-8.3,79,30.47,10.0,North,5.8,-,N/A,,Clear,360,2014-03-16 09:58:00
6:19 AM,-3.5,-8.5,79,30.47,10.0,North,6.9,-,N/A,,Clear,360,2014-03-16 10:19:00
6:39 AM,-3.5,-8.7,78,30.47,10.0,North,6.9,-,N/A,,Clear,10,2014-03-16 10:39:00
6:59 AM,-4.0,-9.4,78,30.47,10.0,North,6.9,-,N/A,,Clear,10,2014-03-16 10:59:00
7:19 AM,-4.0,-9.9,76,30.47,10.0,North,6.9,-,N/A,,Clear,10,2014-03-16 11:19:00
7:39 AM,-4.9,-10.5,77,30.47,10.0,North,4.6,-,N/A,,Clear,10,2014-03-16 11:39:00
7:59 AM,-5.4,-11.0,77,30.47,10.0,North,5.8,-,N/A,,Clear,10,2014-03-16 11:59:00
8:19 AM,-5.1,-10.8,76,30.47,10.0,NNE,8.1,-,N/A,,Clear,20,2014-03-16 12:19:00
8:39 AM,-3.6,-10.3,73,30.47,10.0,North,6.9,-,N/A,,Clear,10,2014-03-16 12:39:00
8:59 AM,-2.6,-10.3,70,30.47,10.0,NNE,6.9,-,N/A,,Clear,20,2014-03-16 12:59:00
9:19 AM,-0.8,-9.8,66,30.47,10.0,NNE,6.9,-,N/A,,Clear,20,2014-03-16 13:19:00
9:39 AM,0.3,-9.6,63,30.48,10.0,NNE,5.8,-,N/A,,Clear,20,2014-03-16 13:39:00
9:59 AM,1.4,-10.3,58,30.47,10.0,NNE,6.9,-,N/A,,Clear,20,2014-03-16 13:59:00
10:19 AM,2.3,-10.1,56,30.48,10.0,NNE,5.8,-,N/A,,Clear,30,2014-03-16 14:19:00
10:39 AM,3.0,-10.8,53,30.48,10.0,NNE,4.6,-,N/A,,Clear,20,2014-03-16 14:39:00
10:59 AM,3.4,-11.2,51,30.48,10.0,North,3.5,-,N/A,,Clear,10,2014-03-16 14:59:00
11:19 AM,3.7,-11.0,50,30.48,10.0,Calm,Calm,-,N/A,,Clear,0,2014-03-16 15:19:00
11:39 AM,4.1,-11.0,50,30.48,10.0,Calm,Calm,-,N/A,,Clear,0,2014-03-16 15:39:00
11:59 AM,6.8,-11.2,44,30.47,10.0,Calm,Calm,-,N/A,,Clear,0,2014-03-16 15:59:00
12:19 PM,6.4,-12.1,42,30.47,10.0,North,3.5,-,N/A,,Clear,360,2014-03-16 16:19:00
12:39 PM,8.1,-11.0,42,30.46,10.0,Calm,Calm,-,N/A,,Clear,0,2014-03-16 16:39:00
12:59 PM,8.6,-10.1,42,30.45,10.0,North,3.5,-,N/A,,Clear,10,2014-03-16 16:59:00
1:19 PM,5.9,-8.1,53,30.45,10.0,SW,4.6,-,N/A,,Clear,230,2014-03-16 17:19:00
1:39 PM,5.9,-7.8,53,30.45,10.0,SW,8.1,-,N/A,,Clear,220,2014-03-16 17:39:00
2:00 PM,6.4,-8.3,51,30.44,10.0,SSW,5.8,-,N/A,,Clear,210,2014-03-16 18:00:00
2:19 PM,6.8,-8.3,50,30.43,10.0,SSW,5.8,-,N/A,,Clear,210,2014-03-16 18:19:00
2:39 PM,7.9,-8.3,48,30.41,10.0,SW,3.5,-,N/A,,Clear,220,2014-03-16 18:39:00
3:00 PM,8.1,-7.4,49,30.40,10.0,SSW,4.6,-,N/A,,Clear,210,2014-03-16 19:00:00
3:19 PM,8.6,-4.7,55,30.40,10.0,SSW,4.6,-,N/A,,Clear,210,2014-03-16 19:19:00
3:39 PM,9.5,-6.7,48,30.39,10.0,SSW,5.8,-,N/A,,Clear,210,2014-03-16 19:39:00
4:00 PM,10.4,-5.8,48,30.38,10.0,WSW,8.1,-,N/A,,Clear,250,2014-03-16 20:00:00
4:19 PM,11.1,-6.2,46,30.37,10.0,WSW,9.2,-,N/A,,Clear,250,2014-03-16 20:19:00
4:39 PM,11.3,-7.6,43,30.37,10.0,WSW,5.8,-,N/A,,Clear,240,2014-03-16 20:39:00
5:00 PM,11.3,-5.8,46,30.36,10.0,WSW,10.4,-,N/A,,Clear,250,2014-03-16 21:00:00
5:19 PM,12.0,-4.2,48,30.35,10.0,West,9.2,-,N/A,,Clear,270,2014-03-16 21:19:00
5:39 PM,11.7,-4.5,48,30.34,10.0,WSW,5.8,-,N/A,,Clear,250,2014-03-16 21:39:00
6:00 PM,10.9,-4.4,50,30.34,10.0,West,9.2,-,N/A,,Clear,260,2014-03-16 22:00:00
6:19 PM,11.1,-6.0,46,30.33,10.0,West,8.1,-,N/A,,Clear,270,2014-03-16 22:19:00
6:39 PM,11.1,-5.8,47,30.32,10.0,West,8.1,-,N/A,,Clear,270,2014-03-16 22:39:00
6:59 PM,10.4,-5.4,49,30.31,10.0,WSW,5.8,-,N/A,,Clear,240,2014-03-16 22:59:00
7:19 PM,9.9,-5.1,51,30.30,10.0,West,9.2,-,N/A,,Clear,270,2014-03-16 23:19:00
7:39 PM,9.0,-5.6,52,30.30,10.0,West,5.8,-,N/A,,Clear,260,2014-03-16 23:39:00
7:59 PM,7.9,-5.6,54,30.29,10.0,WSW,6.9,-,N/A,,Clear,250,2014-03-16 23:59:00
8:19 PM,7.0,-5.3,57,30.28,10.0,WSW,6.9,-,N/A,,Clear,250,2014-03-17 00:19:00
8:40 PM,6.6,-4.9,59,30.28,10.0,WSW,5.8,-,N/A,,Clear,250,2014-03-17 00:40:00
8:59 PM,5.9,-3.6,65,30.28,10.0,West,4.6,-,N/A,,Clear,260,2014-03-17 00:59:00
9:19 PM,3.7,-4.7,68,30.27,10.0,West,5.8,-,N/A,,Clear,260,2014-03-17 01:19:00
9:40 PM,3.7,-4.2,70,30.26,10.0,West,5.8,-,N/A,,Clear,270,2014-03-17 01:40:00
9:59 PM,4.3,-3.5,70,30.26,10.0,West,6.9,-,N/A,,Clear,280,2014-03-17 01:59:00
10:19 PM,4.5,-4.0,68,30.25,10.0,West,5.8,-,N/A,,Clear,280,2014-03-17 02:19:00
10:40 PM,2.8,-5.1,70,30.24,10.0,WNW,3.5,-,N/A,,Clear,290,2014-03-17 02:40:00
10:59 PM,2.1,-5.4,71,30.23,10.0,NW,4.6,-,N/A,,Clear,320,2014-03-17 02:59:00
11:19 PM,0.3,-6.2,74,30.24,10.0,NW,3.5,-,N/A,,Clear,310,2014-03-17 03:19:00
11:39 PM,0.3,-4.7,79,30.23,10.0,North,5.8,-,N/A,,Clear,360,2014-03-17 03:39:00
11:59 PM,0.5,-4.0,81,30.23,10.0,NNW,5.8,-,N/A,,Clear,340,2014-03-17 03:59:00